| time (UTC) | temp F | wind direction | speed knots | gust knots | rain 1hr in | rain 24hr in | rain mn in | humidity % | barometer mb |
| 20260502232212 | 56 | 267 | 0.9 | 1.7 | 0.00 | 0.00 | 0.00 | 61 | |
| 20260502231152 | 56 | 245 | 1.7 | 1.7 | 0.00 | 0.00 | 0.00 | 60 | |
| 20260502230152 | 57 | 266 | 0.9 | 0.9 | 0.00 | 0.00 | 0.00 | 60 | |
| 20260502225152 | 57 | 252 | 0.9 | 0.9 | 0.00 | 0.00 | 0.00 | 60 | |
| 20260502224132 | 57 | 256 | 0.9 | 0.9 | 0.00 | 0.00 | 0.00 | 60 | |
| 20260502223132 | 57 | 260 | 0.9 | 0.9 | 0.00 | 0.00 | 0.00 | 60 | |
| 20260502222112 | 57 | 260 | 0.0 | 0.9 | 0.00 | 0.00 | 0.00 | 61 | |
| 20260502221112 | 56 | 262 | 0.0 | 0.0 | 0.00 | 0.00 | 0.00 | 61 | |
| 20260502220052 | 57 | 268 | 0.0 | 0.0 | 0.00 | 0.00 | 0.00 | 60 | |
| 20260502215052 | 58 | 0 | 0.0 | 0.0 | 0.00 | 0.00 | 0.00 | 59 | |
| 20260502214032 | 58 | 265 | 0.9 | 0.9 | 0.00 | 0.00 | 0.00 | 58 | |
| 20260502213032 | 59 | 263 | 0.9 | 1.7 | 0.00 | 0.00 | 0.00 | 57 | |
| 20260502212012 | 59 | 262 | 0.9 | 0.9 | 0.00 | 0.00 | 0.00 | 57 | |
| 20260502211012 | 59 | 272 | 0.9 | 0.9 | 0.00 | 0.00 | 0.00 | 56 | |
| 20260502205952 | 60 | 263 | 0.9 | 1.7 | 0.00 | 0.00 | 0.00 | 55 | |
| 20260502204952 | 60 | 254 | 0.9 | 1.7 | 0.00 | 0.00 | 0.00 | 54 | |
| 20260502203952 | 60 | 263 | 0.9 | 1.7 | 0.00 | 0.00 | 0.00 | 54 | |
| 20260502202932 | 60 | 248 | 0.9 | 0.9 | 0.00 | 0.00 | 0.00 | 54 | |
| 20260502201932 | 60 | 0 | 0.0 | 0.0 | 0.00 | 0.00 | 0.00 | 54 | |
| 20260502200932 | 60 | 256 | 0.0 | 0.0 | 0.00 | 0.00 | 0.00 | 52 | |
| 20260502195932 | 60 | 247 | 0.0 | 0.9 | 0.00 | 0.00 | 0.00 | 52 | |
| 20260502194932 | 59 | 0 | 0.0 | 0.0 | 0.00 | 0.00 | 0.00 | 54 | |
| 20260502193912 | 59 | 259 | 0.0 | 0.0 | 0.00 | 0.00 | 0.00 | 55 | |
| 20260502192912 | 60 | 0 | 0.0 | 0.0 | 0.00 | 0.00 | 0.00 | 52 | |
| 20260502191912 | 62 | 259 | 0.0 | 0.0 | 0.00 | 0.00 | 0.00 | 47 | |
| 20260502190912 | 64 | 265 | 0.0 | 0.9 | 0.00 | 0.00 | 0.00 | 45 | |
| 20260502185852 | 64 | 260 | 0.9 | 1.7 | 0.00 | 0.00 | 0.00 | 45 | |
| 20260502184832 | 64 | 270 | 0.0 | 0.9 | 0.00 | 0.00 | 0.00 | 45 | |
| 20260502183832 | 66 | 241 | 0.9 | 0.9 | 0.00 | 0.00 | 0.00 | 42 | |
| 20260502182812 | 67 | 242 | 0.9 | 1.7 | 0.00 | 0.00 | 0.00 | 41 | |
| 20260502181812 | 68 | 252 | 2.6 | 1.7 | 0.00 | 0.00 | 0.00 | 38 | |
| 20260502163632 | 75 | 243 | 3.5 | 6.1 | 0.00 | 0.00 | 0.00 | 31 | |
| 20260502162612 | 76 | 263 | 5.2 | 7.0 | 0.00 | 0.00 | 0.00 | 29 | |
| 20260502161612 | 76 | 260 | 4.3 | 7.0 | 0.00 | 0.00 | 0.00 | 31 | |
| 20260502160612 | 77 | 272 | 4.3 | 6.1 | 0.00 | 0.00 | 0.00 | 31 | |
| 20260502151512 | 78 | 235 | 1.7 | 3.5 | 0.00 | 0.00 | 0.00 | 33 | |
| 20260502150512 | 78 | 218 | 4.3 | 4.3 | 0.00 | 0.00 | 0.00 | 29 | |
| 20260502130351 | 78 | 250 | 6.1 | 6.1 | 0.00 | 0.00 | 0.00 | 30 | |
| 20260502123311 | 78 | 259 | 2.6 | 3.5 | 0.00 | 0.00 | 0.00 | 29 | |
| 20260502122252 | 77 | 259 | 4.3 | 7.8 | 0.00 | 0.00 | 0.00 | 30 | |
| 20260502121251 | 77 | 263 | 4.3 | 7.0 | 0.00 | 0.00 | 0.00 | 30 | |
| 20260502120232 | 77 | 231 | 3.5 | 3.5 | 0.00 | 0.00 | 0.00 | 35 | |
| 20260502115231 | 76 | 242 | 3.5 | 5.2 | 0.00 | 0.00 | 0.00 | 29 | |
| 20260502114211 | 78 | 181 | 3.5 | 6.1 | 0.00 | 0.00 | 0.00 | 29 | |
| 20260502113211 | 76 | 234 | 4.3 | 7.0 | 0.00 | 0.00 | 0.00 | 29 | |
| 20260502112151 | 77 | 272 | 7.8 | 9.6 | 0.00 | 0.00 | 0.00 | 30 | |
| 20260502111151 | 77 | 291 | 4.3 | 7.0 | 0.00 | 0.00 | 0.00 | 29 | |
| 20260502110151 | 75 | 211 | 4.3 | 2.6 | 0.00 | 0.00 | 0.00 | 26 | |
| 20260502105151 | 76 | 251 | 2.6 | 3.5 | 0.00 | 0.00 | 0.00 | 28 | |
| 20260502104151 | 75 | 243 | 1.7 | 1.7 | 0.00 | 0.00 | 0.00 | 27 | |
| 20260502103131 | 75 | 252 | 2.6 | 5.2 | 0.00 | 0.00 | 0.00 | 31 | |
| 20260502102131 | 75 | 264 | 4.3 | 4.3 | 0.00 | 0.00 | 0.00 | 32 | |
| 20260502101111 | 75 | 257 | 2.6 | 4.3 | 0.00 | 0.00 | 0.00 | 33 | |
| 20260502100111 | 73 | 245 | 4.3 | 7.0 | 0.00 | 0.00 | 0.00 | 31 | |
| 20260502091031 | 73 | 274 | 2.6 | 3.5 | 0.00 | 0.00 | 0.00 | 29 | |
| 20260502070911 | 67 | 270 | 0.9 | 1.7 | 0.00 | 0.00 | 0.00 | 39 | |
| 20260502065851 | 65 | 265 | 0.9 | 0.9 | 0.00 | 0.00 | 0.00 | 40 | |
| 20260502064831 | 64 | 249 | 1.7 | 2.6 | 0.00 | 0.00 | 0.00 | 41 | |
| 20260502063831 | 63 | 263 | 0.9 | 2.6 | 0.00 | 0.00 | 0.00 | 44 | |
| 20260502062811 | 63 | 265 | 0.0 | 0.9 | 0.00 | 0.00 | 0.00 | 51 | |
| 20260502061811 | 62 | 233 | 0.0 | 0.9 | 0.00 | 0.00 | 0.00 | 52 | |
| 20260502060811 | 61 | 256 | 0.0 | 0.0 | 0.00 | 0.00 | 0.00 | 49 | |
| 20260502055751 | 60 | 0 | 0.0 | 0.0 | 0.00 | 0.00 | 0.00 | 55 | |
| 20260502054731 | 58 | 301 | 0.0 | 0.9 | 0.00 | 0.00 | 0.00 | 57 | |
| 20260502053731 | 57 | 271 | 0.0 | 0.9 | 0.00 | 0.00 | 0.00 | 64 | |
| 20260502052731 | 56 | 332 | 0.0 | 0.0 | 0.00 | 0.00 | 0.00 | 68 | |
| 20260502052511 | 56 | 0 | 0.0 | 0.0 | 0.00 | 0.00 | 0.00 | 71 | |
| 20260502051511 | 56 | 0 | 0.0 | 0.0 | 0.00 | 0.00 | 0.00 | 78 | |
| 20260502050511 | 51 | 266 | 0.0 | 0.0 | 0.00 | 0.00 | 0.00 | 95 | |
| 20260502045511 | 48 | 264 | 0.9 | 0.9 | 0.00 | 0.00 | 0.00 | 99 | |
| 20260502044511 | 47 | 263 | 0.0 | 0.0 | 0.00 | 0.00 | 0.00 | 99 | |
| 20260502043511 | 46 | 268 | 0.0 | 0.9 | 0.00 | 0.00 | 0.00 | 99 | |
| 20260502042451 | 46 | 280 | 0.9 | 0.9 | 0.00 | 0.00 | 0.00 | 99 | |
| 20260502041451 | 44 | 269 | 0.0 | 0.9 | 0.00 | 0.00 | 0.00 | 99 | |
| 20260502040431 | 43 | 270 | 0.9 | 0.9 | 0.00 | 0.00 | 0.00 | 99 | |
| 20260502035611 | 42 | 0 | 0.0 | 0.0 | 0.00 | 0.00 | 0.00 | 99 | |
| 20260502034611 | 41 | 0 | 0.0 | 0.0 | 0.00 | 0.00 | 0.00 | 99 | |
| 20260502033551 | 40 | 0 | 0.0 | 0.0 | 0.00 | 0.00 | 0.00 | 99 | |
| 20260502032551 | 39 | 0 | 0.0 | 0.0 | 0.00 | 0.00 | 0.00 | 99 | |
| 20260502031551 | 40 | 270 | 0.9 | 0.9 | 0.00 | 0.00 | 0.00 | 99 | |
| 20260502030551 | 39 | 0 | 0.0 | 0.0 | 0.00 | 0.00 | 0.00 | 99 | |
| 20260502025531 | 40 | 0 | 0.0 | 0.0 | 0.00 | 0.00 | 0.00 | 99 | |
| 20260502024511 | 39 | 0 | 0.0 | 0.0 | 0.00 | 0.00 | 0.00 | 99 | |
| 20260502023511 | 39 | 0 | 0.0 | 0.0 | 0.00 | 0.00 | 0.00 | 99 | |
| 20260502022511 | 39 | 0 | 0.0 | 0.0 | 0.00 | 0.00 | 0.00 | 99 | |
| 20260502021511 | 39 | 0 | 0.0 | 0.0 | 0.00 | 0.00 | 0.00 | 99 | |
| 20260502020511 | 40 | 0 | 0.0 | 0.0 | 0.00 | 0.00 | 0.00 | 99 | |
| 20260502015511 | 40 | 0 | 0.0 | 0.0 | 0.00 | 0.00 | 0.00 | 99 | |
| 20260502014511 | 40 | 0 | 0.0 | 0.0 | 0.00 | 0.00 | 0.00 | 99 | |
| 20260502013511 | 41 | 0 | 0.0 | 0.0 | 0.00 | 0.00 | 0.00 | 99 | |
| 20260502012451 | 41 | 0 | 0.0 | 0.0 | 0.00 | 0.00 | 0.00 | 99 | |
| 20260502011451 | 42 | 0 | 0.0 | 0.0 | 0.00 | 0.00 | 0.00 | 99 | |
| 20260502010451 | 41 | 0 | 0.0 | 0.0 | 0.00 | 0.00 | 0.00 | 99 | |
| 20260502005431 | 41 | 0 | 0.0 | 0.0 | 0.00 | 0.00 | 0.00 | 99 | |
| 20260502004431 | 42 | 0 | 0.0 | 0.0 | 0.00 | 0.00 | 0.00 | 99 | |
| 20260502003411 | 41 | 0 | 0.0 | 0.0 | 0.00 | 0.00 | 0.00 | 99 | |
| 20260502002410 | 41 | 0 | 0.0 | 0.0 | 0.00 | 0.00 | 0.00 | 99 | |
| 20260502001411 | 42 | 0 | 0.0 | 0.0 | 0.00 | 0.00 | 0.00 | 99 | |
| 20260502000351 | 44 | 0 | 0.0 | 0.0 | 0.00 | 0.00 | 0.00 | 95 | |
| 20260501235350 | 45 | 0 | 0.0 | 0.0 | 0.00 | 0.00 | 0.00 | 85 | |
| 20260501234350 | 46 | 0 | 0.0 | 0.0 | 0.00 | 0.00 | 0.00 | 82 | |
| 20260501233330 | 47 | 0 | 0.0 | 0.0 | 0.00 | 0.00 | 0.00 | 77 |